| time (UTC) | temp C | wind direction | speed KPH | gust KPH | rain 1hr cm | rain 24hr cm | rain mn cm | humidity % | barometer mb |
| 20260506033049 | 15 | 304 | 0.0 | 0.0 | 0.00 | 0.00 | 0.38 | 46 | 1010.4 |
| 20260506031531 | 15 | 304 | 0.0 | 0.0 | 0.00 | 0.00 | 0.38 | 44 | 1010.1 |
| 20260506030033 | 16 | 304 | 0.0 | 0.0 | 0.00 | 0.00 | 0.38 | 42 | 1009.8 |
| 20260506024513 | 17 | 304 | 0.0 | 0.0 | 0.00 | 0.00 | 0.38 | 40 | 1009.5 |
| 20260506023012 | 18 | 304 | 0.0 | 0.0 | 0.00 | 0.00 | 0.38 | 37 | 1009.4 |
| 20260506021557 | 18 | 304 | 0.0 | 0.0 | 0.00 | 0.00 | 0.38 | 36 | 1009.3 |
| 20260506020054 | 20 | 304 | 1.6 | 0.0 | 0.00 | 0.00 | 0.38 | 33 | 1009.2 |
| 20260506014545 | 20 | 304 | 3.2 | 0.0 | 0.00 | 0.00 | 0.38 | 33 | 1009.0 |
| 20260506013039 | 20 | 304 | 3.2 | 0.0 | 0.00 | 0.00 | 0.38 | 34 | 1009.0 |
| 20260506011518 | 19 | 304 | 1.6 | 0.0 | 0.00 | 0.00 | 0.38 | 37 | 1008.9 |
| 20260506010024 | 20 | 304 | 1.6 | 0.0 | 0.00 | 0.00 | 0.38 | 38 | 1008.9 |
| 20260506004600 | 20 | 304 | 1.6 | 0.0 | 0.00 | 0.00 | 0.38 | 39 | 1009.0 |
| 20260506003100 | 20 | 304 | 1.6 | 0.0 | 0.00 | 0.00 | 0.38 | 38 | 1008.9 |
| 20260506001604 | 19 | 304 | 0.0 | 0.0 | 0.00 | 0.00 | 0.38 | 39 | 1008.9 |
| 20260506000046 | 18 | 304 | 0.0 | 0.0 | 0.00 | 0.00 | 0.38 | 44 | 1009.1 |
| 20260505234524 | 19 | 304 | 0.0 | 0.0 | 0.00 | 0.00 | 0.38 | 41 | 1009.1 |
| 20260505233123 | 20 | 304 | 0.0 | 0.0 | 0.00 | 0.00 | 0.38 | 39 | 1009.2 |
| 20260505231506 | 20 | 304 | 1.6 | 0.0 | 0.00 | 0.00 | 0.38 | 36 | 1009.2 |
| 20260505230005 | 20 | 304 | 1.6 | 0.0 | 0.00 | 0.00 | 0.38 | 39 | 1009.3 |
| 20260505224549 | 20 | 304 | 3.2 | 0.0 | 0.00 | 0.00 | 0.38 | 35 | 1009.4 |
| 20260505223055 | 20 | 305 | 3.2 | 0.0 | 0.00 | 0.00 | 0.38 | 36 | 1009.5 |
| 20260505221530 | 20 | 305 | 0.0 | 0.0 | 0.00 | 0.00 | 0.38 | 38 | 1009.7 |
| 20260505220037 | 20 | 306 | 1.6 | 0.0 | 0.00 | 0.00 | 0.38 | 34 | 1009.7 |
| 20260505214516 | 20 | 306 | 4.8 | 0.0 | 0.00 | 0.00 | 0.38 | 36 | 1009.7 |
| 20260505213009 | 21 | 303 | 4.8 | 0.0 | 0.00 | 0.00 | 0.38 | 41 | 1009.8 |
| 20260505211558 | 20 | 303 | 4.8 | 0.0 | 0.00 | 0.00 | 0.38 | 37 | 1009.9 |
| 20260505210056 | 20 | 298 | 6.4 | 0.0 | 0.00 | 0.00 | 0.38 | 35 | 1010.1 |
| 20260505204536 | 20 | 335 | 6.4 | 0.0 | 0.00 | 0.00 | 0.38 | 35 | 1010.1 |
| 20260505203037 | 19 | 307 | 4.8 | 0.0 | 0.00 | 0.00 | 0.38 | 36 | 1010.1 |
| 20260505201517 | 18 | 310 | 4.8 | 0.0 | 0.00 | 0.00 | 0.38 | 39 | 1010.3 |
| 20260505200014 | 19 | 310 | 0.0 | 0.0 | 0.00 | 0.00 | 0.38 | 39 | 1010.3 |
| 20260505194558 | 18 | 310 | 0.0 | 0.0 | 0.00 | 0.00 | 0.38 | 39 | 1010.3 |
| 20260505193054 | 20 | 310 | 1.6 | 0.0 | 0.00 | 0.00 | 0.38 | 36 | 1010.4 |
| 20260505191548 | 19 | 310 | 4.8 | 0.0 | 0.00 | 0.00 | 0.38 | 37 | 1010.5 |
| 20260505190039 | 18 | 292 | 6.4 | 0.0 | 0.00 | 0.00 | 0.38 | 39 | 1010.5 |
| 20260505184521 | 19 | 319 | 4.8 | 0.0 | 0.00 | 0.00 | 0.38 | 39 | 1010.5 |
| 20260505183026 | 19 | 351 | 3.2 | 0.0 | 0.00 | 0.00 | 0.38 | 37 | 1010.5 |
| 20260505181600 | 18 | 289 | 3.2 | 0.0 | 0.00 | 0.00 | 0.38 | 42 | 1010.5 |
| 20260505180056 | 18 | 327 | 0.0 | 0.0 | 0.00 | 0.00 | 0.38 | 42 | 1010.6 |
| 20260505174541 | 18 | 321 | 1.6 | 0.0 | 0.00 | 0.00 | 0.38 | 41 | 1010.7 |
| 20260505173040 | 17 | 317 | 1.6 | 0.0 | 0.00 | 0.00 | 0.38 | 44 | 1010.7 |
| 20260505171527 | 17 | 103 | 0.0 | 0.0 | 0.00 | 0.00 | 0.38 | 43 | 1010.8 |
| 20260505170016 | 17 | 103 | 0.0 | 0.0 | 0.00 | 0.00 | 0.38 | 46 | 1010.7 |
| 20260505164555 | 16 | 113 | 1.6 | 0.0 | 0.00 | 0.00 | 0.38 | 49 | 1010.8 |
| 20260505163058 | 16 | 128 | 0.0 | 0.0 | 0.00 | 0.00 | 0.38 | 51 | 1010.7 |
| 20260505161534 | 15 | 128 | 0.0 | 0.0 | 0.00 | 0.00 | 0.38 | 54 | 1010.7 |
| 20260505153006 | 13 | 164 | 0.0 | 0.0 | 0.00 | 0.00 | 0.38 | 62 | 1010.7 |
| 20260505151544 | 12 | 163 | 0.0 | 0.0 | 0.00 | 0.00 | 0.38 | 69 | 1010.7 |
| 20260505124504 | 4 | 164 | 0.0 | 0.0 | 0.00 | 0.00 | 0.38 | 90 | 1010.0 |
| 20260505123001 | 4 | 164 | 0.0 | 0.0 | 0.00 | 0.00 | 0.38 | 89 | 1009.9 |
| 20260505121541 | 5 | 164 | 0.0 | 0.0 | 0.00 | 0.00 | 0.38 | 90 | 1009.8 |
| 20260505120049 | 5 | 164 | 0.0 | 0.0 | 0.00 | 0.00 | 0.38 | 90 | 1009.6 |
| 20260505114530 | 5 | 164 | 0.0 | 0.0 | 0.00 | 0.00 | 0.38 | 90 | 1009.7 |
| 20260505113021 | 5 | 164 | 0.0 | 0.0 | 0.00 | 0.00 | 0.38 | 91 | 1009.7 |
| 20260505111509 | 5 | 164 | 0.0 | 0.0 | 0.00 | 0.00 | 0.38 | 90 | 1009.5 |
| 20260505101521 | 6 | 164 | 0.0 | 0.0 | 0.00 | 0.00 | 0.38 | 89 | 1009.1 |
| 20260505100026 | 6 | 164 | 0.0 | 0.0 | 0.00 | 0.00 | 0.36 | 89 | 1009.0 |
| 20260505094608 | 6 | 164 | 0.0 | 0.0 | 0.00 | 0.00 | 0.36 | 89 | 1008.9 |
| 20260505093056 | 6 | 164 | 0.0 | 0.0 | 0.00 | 0.00 | 0.36 | 88 | 1008.9 |
| 20260505091544 | 6 | 164 | 0.0 | 0.0 | 0.00 | 0.00 | 0.36 | 88 | 1008.8 |
| 20260505090049 | 6 | 164 | 0.0 | 0.0 | 0.00 | 0.00 | 0.36 | 87 | 1008.8 |
| 20260505084525 | 7 | 164 | 0.0 | 0.0 | 0.00 | 0.00 | 0.36 | 87 | 1008.7 |
| 20260505083023 | 7 | 164 | 0.0 | 0.0 | 0.00 | 0.00 | 0.36 | 87 | 1008.6 |
| 20260505081525 | 7 | 164 | 0.0 | 0.0 | 0.00 | 0.00 | 0.36 | 87 | 1008.6 |
| 20260505080038 | 8 | 164 | 0.0 | 0.0 | 0.00 | 0.00 | 0.36 | 87 | 1008.4 |
| 20260505074515 | 8 | 164 | 0.0 | 0.0 | 0.00 | 0.00 | 0.36 | 87 | 1008.4 |
| 20260505073016 | 8 | 164 | 0.0 | 0.0 | 0.00 | 0.00 | 0.36 | 89 | 1008.3 |
| 20260505071513 | 8 | 164 | 0.0 | 0.0 | 0.00 | 0.00 | 0.36 | 89 | 1008.3 |
| 20260505070013 | 8 | 164 | 0.0 | 0.0 | 0.00 | 0.00 | 0.36 | 90 | 1008.2 |
| 20260505064551 | 9 | 164 | 0.0 | 0.0 | 0.00 | 0.00 | 0.36 | 91 | 1008.1 |
| 20260505063053 | 8 | 166 | 0.0 | 0.0 | 0.00 | 0.00 | 0.36 | 91 | 1007.9 |
| 20260505061531 | 9 | 167 | 0.0 | 0.0 | 0.00 | 0.00 | 0.36 | 90 | 1007.7 |
| 20260505060028 | 10 | 167 | 0.0 | 0.0 | 0.00 | 0.00 | 0.36 | 90 | 1007.8 |
| 20260505054511 | 10 | 167 | 0.0 | 0.0 | 0.00 | 0.00 | 0.33 | 90 | 1007.7 |
| 20260505053015 | 10 | 167 | 0.0 | 0.0 | 0.00 | 0.00 | 0.30 | 89 | 1007.6 |
| 20260505051607 | 10 | 167 | 0.0 | 0.0 | 0.00 | 0.00 | 0.28 | 89 | 1007.6 |
| 20260505050118 | 11 | 167 | 0.0 | 0.0 | 0.00 | 0.00 | 0.23 | 89 | 1007.6 |
| 20260505041536 | 12 | 167 | 0.0 | 0.0 | 0.00 | 0.00 | 0.08 | 88 | 1007.4 |
| 20260505034556 | 12 | 167 | 0.0 | 0.0 | 0.00 | 0.00 | 0.41 | 86 | 1007.1 |